Find KUIPER-00364

NORAD ID: 68867 Int'l Des: 2026-095D Owner: kuiper Country: USA Constellation: kuiper operational
LEOCIRCULAR

Live Position

Loading 3D Globe...

About KUIPER-00364

Description loading...

Upcoming Passes

Passes for default location (London). Set your location on the main map for personalized predictions.

Altitude History

Loading altitude history...

Two-Line Element Set

1 68867U 26095D 26120.66670139 -.00010216 00000-0 -26230-3 0 9994
2 68867 51.8797 112.1523 0003965 104.6015 75.2509 15.37605824 1302
Epoch: Apr 30, 2026 • Age: 31 hours

Current Status

Altitude 456.4 km
Velocity 7.65 km/s
Sub-Earth Point 48.28°N, 33.75°W
Type internet

Most Searched